Time,TemperatureF,DewpointF,PressureIn,WindDirection,WindDirectionDegrees,WindSpeedMPH,WindSpeedGustMPH,Humidity,HourlyPrecipIn,Conditions,Clouds,dailyrainin,SoftwareType,DateUTC
2013-02-18 00:02:00,21.0,16.0,29.78,SE,126,4.0,11.0,79,0.00,,,0.00,,2013-02-18 06:02:00,
2013-02-18 00:11:00,21.0,16.0,29.78,SE,126,4.0,11.0,79,0.00,,,0.00,,2013-02-18 06:11:00,
2013-02-18 00:21:00,21.0,16.0,29.77,ESE,109,3.0,8.0,79,0.00,,,0.00,,2013-02-18 06:21:00,
2013-02-18 00:32:00,22.0,17.0,29.77,SE,138,2.0,10.0,80,0.00,,,0.00,,2013-02-18 06:32:00,
2013-02-18 00:41:00,22.0,17.0,29.77,SE,138,2.0,10.0,80,0.00,,,0.00,,2013-02-18 06:41:00,
2013-02-18 00:52:00,22.0,17.0,29.76,SE,133,4.0,8.0,80,0.00,,,0.00,,2013-02-18 06:52:00,
2013-02-18 01:01:00,22.0,17.0,29.75,SE,130,4.0,8.0,81,0.00,,,0.00,,2013-02-18 07:01:00,
2013-02-18 01:11:00,22.0,17.0,29.75,SE,130,4.0,8.0,81,0.00,,,0.00,,2013-02-18 07:11:00,
2013-02-18 01:22:00,22.0,17.0,29.73,ESE,123,5.0,12.0,81,0.00,,,0.00,,2013-02-18 07:22:00,
2013-02-18 01:32:00,22.0,17.0,29.72,SE,134,4.0,9.0,81,0.00,,,0.00,,2013-02-18 07:32:00,
2013-02-18 01:42:00,22.0,17.0,29.72,SE,134,4.0,9.0,81,0.00,,,0.00,,2013-02-18 07:42:00,
2013-02-18 01:52:00,22.0,17.0,29.71,SE,134,5.0,11.0,82,0.00,,,0.00,,2013-02-18 07:52:00,
2013-02-18 02:01:00,22.0,17.0,29.70,SE,125,4.0,8.0,82,0.00,,,0.00,,2013-02-18 08:01:00,
2013-02-18 02:11:00,22.0,17.0,29.70,SE,125,4.0,8.0,82,0.00,,,0.00,,2013-02-18 08:11:00,
2013-02-18 02:21:00,23.0,18.0,29.69,SE,128,3.0,12.0,82,0.00,,,0.00,,2013-02-18 08:21:00,
2013-02-18 02:32:00,23.0,18.0,29.68,SSE,148,4.0,10.0,82,0.00,,,0.00,,2013-02-18 08:32:00,
2013-02-18 02:42:00,23.0,18.0,29.68,SSE,148,4.0,10.0,82,0.00,,,0.00,,2013-02-18 08:42:00,
2013-02-18 02:52:00,24.0,19.0,29.67,ESE,115,4.0,10.0,82,0.00,,,0.00,,2013-02-18 08:52:00,
2013-02-18 03:02:00,23.0,18.0,29.66,SE,139,4.0,9.0,82,0.00,,,0.00,,2013-02-18 09:02:00,
2013-02-18 03:11:00,23.0,18.0,29.66,SE,139,4.0,9.0,82,0.00,,,0.00,,2013-02-18 09:11:00,
2013-02-18 03:22:00,24.0,19.0,29.65,SSE,166,6.0,11.0,82,0.00,,,0.00,,2013-02-18 09:22:00,
2013-02-18 03:31:00,24.0,19.0,29.64,SSE,150,4.0,9.0,82,0.00,,,0.00,,2013-02-18 09:31:00,
2013-02-18 03:42:00,24.0,19.0,29.64,SSE,150,4.0,9.0,82,0.00,,,0.00,,2013-02-18 09:42:00,
2013-02-18 03:52:00,23.0,19.0,29.64,SE,136,3.0,7.0,83,0.00,,,0.00,,2013-02-18 09:52:00,
2013-02-18 04:01:00,24.0,20.0,29.63,ESE,112,3.0,10.0,83,0.00,,,0.00,,2013-02-18 10:01:00,
2013-02-18 04:11:00,24.0,20.0,29.63,ESE,112,3.0,10.0,83,0.00,,,0.00,,2013-02-18 10:11:00,
2013-02-18 04:21:00,23.0,19.0,29.62,SE,139,3.0,7.0,83,0.00,,,0.00,,2013-02-18 10:21:00,
2013-02-18 04:31:00,23.0,19.0,29.62,ESE,105,2.0,6.0,84,0.00,,,0.00,,2013-02-18 10:31:00,
2013-02-18 04:42:00,23.0,19.0,29.62,ESE,105,2.0,6.0,84,0.00,,,0.00,,2013-02-18 10:42:00,
2013-02-18 04:53:00,23.0,19.0,29.62,ESE,116,2.0,7.0,85,0.00,,,0.00,,2013-02-18 10:53:00,
2013-02-18 05:01:00,23.0,19.0,29.62,SE,131,2.0,5.0,85,0.00,,,0.00,,2013-02-18 11:01:00,
2013-02-18 05:11:00,23.0,19.0,29.62,SE,131,2.0,5.0,85,0.00,,,0.00,,2013-02-18 11:11:00,
2013-02-18 05:22:00,23.0,19.0,29.61,ESE,119,2.0,5.0,85,0.00,,,0.00,,2013-02-18 11:22:00,
2013-02-18 05:32:00,23.0,19.0,29.61,SE,126,2.0,6.0,86,0.00,,,0.00,,2013-02-18 11:32:00,
2013-02-18 05:42:00,23.0,19.0,29.61,SE,126,2.0,6.0,86,0.00,,,0.00,,2013-02-18 11:42:00,
2013-02-18 05:53:00,23.0,19.0,29.60,SE,130,2.0,4.0,86,0.00,,,0.00,,2013-02-18 11:53:00,
2013-02-18 06:02:00,23.0,19.0,29.59,SE,129,2.0,5.0,86,0.00,,,0.00,,2013-02-18 12:02:00,
2013-02-18 06:11:00,23.0,19.0,29.59,SE,129,2.0,5.0,86,0.00,,,0.00,,2013-02-18 12:11:00,
2013-02-18 06:22:00,23.0,20.0,29.58,SE,142,2.0,6.0,87,0.00,,,0.00,,2013-02-18 12:22:00,
2013-02-18 06:32:00,23.0,19.0,29.58,SSE,155,3.0,9.0,86,0.00,,,0.00,,2013-02-18 12:32:00,
2013-02-18 06:42:00,23.0,19.0,29.58,SSE,155,3.0,9.0,86,0.00,,,0.00,,2013-02-18 12:42:00,
2013-02-18 06:53:00,23.0,19.0,29.57,SE,139,3.0,7.0,86,0.00,,,0.00,,2013-02-18 12:53:00,
2013-02-18 07:02:00,22.0,18.0,29.56,SSE,150,2.0,7.0,86,0.00,,,0.00,,2013-02-18 13:02:00,
2013-02-18 07:12:00,22.0,18.0,29.56,SSE,150,2.0,7.0,86,0.00,,,0.00,,2013-02-18 13:12:00,
2013-02-18 07:22:00,22.0,19.0,29.56,SE,146,2.0,5.0,87,0.00,,,0.00,,2013-02-18 13:22:00,
2013-02-18 07:32:00,22.0,19.0,29.55,SE,136,2.0,7.0,87,0.00,,,0.00,,2013-02-18 13:32:00,
2013-02-18 07:42:00,22.0,19.0,29.55,SE,136,2.0,7.0,87,0.00,,,0.00,,2013-02-18 13:42:00,
2013-02-18 07:53:00,22.0,19.0,29.55,SE,136,2.0,7.0,87,0.00,,,0.00,,2013-02-18 13:53:00,
2013-02-18 08:02:00,23.0,20.0,29.55,SE,137,2.0,4.0,87,0.00,,,0.00,,2013-02-18 14:02:00,
2013-02-18 08:11:00,23.0,20.0,29.55,SE,137,2.0,4.0,87,0.00,,,0.00,,2013-02-18 14:11:00,
2013-02-18 08:22:00,23.0,20.0,29.55,SSE,155,3.0,5.0,87,0.00,,,0.00,,2013-02-18 14:22:00,
2013-02-18 08:32:00,24.0,20.0,29.55,SSE,153,3.0,6.0,86,0.00,,,0.00,,2013-02-18 14:32:00,
2013-02-18 08:42:00,24.0,20.0,29.55,SSE,153,3.0,6.0,86,0.00,,,0.00,,2013-02-18 14:42:00,
2013-02-18 08:53:00,24.0,20.0,29.55,SSE,147,3.0,8.0,86,0.00,,,0.00,,2013-02-18 14:53:00,
2013-02-18 09:02:00,25.0,21.0,29.54,SE,130,3.0,7.0,85,0.00,,,0.00,,2013-02-18 15:02:00,
2013-02-18 09:11:00,25.0,21.0,29.54,SE,130,3.0,7.0,85,0.00,,,0.00,,2013-02-18 15:11:00,
2013-02-18 09:22:00,25.0,21.0,29.52,SE,129,3.0,7.0,84,0.00,,,0.00,,2013-02-18 15:22:00,
2013-02-18 09:32:00,26.0,22.0,29.52,SE,143,2.0,7.0,83,0.00,,,0.00,,2013-02-18 15:32:00,
2013-02-18 09:42:00,26.0,22.0,29.52,SE,143,2.0,7.0,83,0.00,,,0.00,,2013-02-18 15:42:00,
2013-02-18 09:52:00,27.0,23.0,29.52,SSE,148,3.0,7.0,83,0.00,,,0.00,,2013-02-18 15:52:00,
2013-02-18 10:02:00,28.0,23.0,29.52,ESE,119,3.0,6.0,81,0.00,,,0.00,,2013-02-18 16:02:00,
2013-02-18 10:12:00,28.0,23.0,29.52,ESE,119,3.0,6.0,81,0.00,,,0.00,,2013-02-18 16:12:00,
2013-02-18 10:22:00,29.0,24.0,29.51,ESE,117,3.0,7.0,80,0.00,,,0.00,,2013-02-18 16:22:00,
2013-02-18 10:32:00,31.0,25.0,29.51,SE,141,2.0,5.0,79,0.00,,,0.00,,2013-02-18 16:32:00,
2013-02-18 10:42:00,31.0,25.0,29.51,SE,141,2.0,5.0,79,0.00,,,0.00,,2013-02-18 16:42:00,
2013-02-18 10:53:00,31.0,25.0,29.51,SE,128,2.0,5.0,79,0.00,,,0.00,,2013-02-18 16:53:00,
2013-02-18 11:03:00,33.0,27.0,29.49,SE,126,1.0,3.0,78,0.00,,,0.00,,2013-02-18 17:03:00,
2013-02-18 11:12:00,33.0,27.0,29.49,SE,126,1.0,3.0,78,0.00,,,0.00,,2013-02-18 17:12:00,
2013-02-18 11:22:00,33.0,27.0,29.49,South,171,1.0,2.0,79,0.00,,,0.00,,2013-02-18 17:22:00,
2013-02-18 11:32:00,35.0,29.0,29.49,SE,142,1.0,3.0,77,0.00,,,0.00,,2013-02-18 17:32:00,
2013-02-18 11:42:00,35.0,29.0,29.49,SE,142,1.0,3.0,77,0.00,,,0.00,,2013-02-18 17:42:00,
2013-02-18 11:53:00,35.0,28.0,29.49,South,169,3.0,6.0,75,0.00,,,0.00,,2013-02-18 17:53:00,
2013-02-18 12:02:00,35.0,28.0,29.49,South,184,3.0,8.0,75,0.00,,,0.00,,2013-02-18 18:02:00,
2013-02-18 12:12:00,35.0,28.0,29.49,South,184,3.0,8.0,75,0.00,,,0.00,,2013-02-18 18:12:00,
2013-02-18 12:22:00,36.0,29.0,29.48,South,177,4.0,8.0,75,0.00,,,0.00,,2013-02-18 18:22:00,
2013-02-18 12:32:00,36.0,29.0,29.48,South,173,2.0,5.0,76,0.00,,,0.00,,2013-02-18 18:32:00,
2013-02-18 12:42:00,36.0,29.0,29.48,South,173,2.0,5.0,76,0.00,,,0.00,,2013-02-18 18:42:00,
2013-02-18 12:53:00,37.0,30.0,29.47,SSW,200,2.0,5.0,75,0.00,,,0.00,,2013-02-18 18:53:00,
2013-02-18 13:02:00,37.0,29.0,29.46,South,178,2.0,6.0,74,0.01,,,0.01,,2013-02-18 19:02:00,
2013-02-18 13:12:00,37.0,29.0,29.46,South,178,2.0,6.0,74,0.01,,,0.01,,2013-02-18 19:12:00,
2013-02-18 13:22:00,37.0,29.0,29.45,South,188,2.0,5.0,74,0.01,,,0.01,,2013-02-18 19:22:00,
2013-02-18 13:33:00,38.0,30.0,29.44,SSE,163,1.0,5.0,73,0.01,,,0.01,,2013-02-18 19:33:00,
2013-02-18 13:42:00,38.0,30.0,29.44,SSE,163,1.0,5.0,73,0.01,,,0.01,,2013-02-18 19:42:00,
2013-02-18 13:53:00,39.0,31.0,29.44,SSW,192,3.0,5.0,72,0.01,,,0.01,,2013-02-18 19:53:00,
2013-02-18 14:02:00,39.0,31.0,29.43,South,188,2.0,5.0,72,0.00,,,0.01,,2013-02-18 20:02:00,
2013-02-18 14:12:00,39.0,31.0,29.43,South,188,2.0,5.0,72,0.00,,,0.01,,2013-02-18 20:12:00,
2013-02-18 14:23:00,39.0,30.0,29.44,SSW,196,2.0,4.0,71,0.00,,,0.01,,2013-02-18 20:23:00,
2013-02-18 14:33:00,40.0,31.0,29.44,SSW,198,1.0,4.0,71,0.00,,,0.01,,2013-02-18 20:33:00,
2013-02-18 14:42:00,40.0,31.0,29.44,SSW,198,1.0,4.0,71,0.00,,,0.01,,2013-02-18 20:42:00,
2013-02-18 14:53:00,40.0,31.0,29.44,SW,229,1.0,4.0,71,0.00,,,0.01,,2013-02-18 20:53:00,
2013-02-18 15:03:00,40.0,32.0,29.44,SSW,195,0.0,6.0,73,0.00,,,0.01,,2013-02-18 21:03:00,
2013-02-18 15:12:00,40.0,32.0,29.44,SSW,195,0.0,6.0,73,0.00,,,0.01,,2013-02-18 21:12:00,
2013-02-18 15:22:00,40.0,32.0,29.44,SW,231,3.0,7.0,73,0.00,,,0.01,,2013-02-18 21:22:00,
2013-02-18 15:32:00,39.0,31.0,29.45,WNW,282,3.0,6.0,74,0.00,,,0.01,,2013-02-18 21:32:00,
2013-02-18 15:42:00,39.0,31.0,29.45,WNW,282,3.0,6.0,74,0.00,,,0.01,,2013-02-18 21:42:00,
2013-02-18 15:53:00,38.0,31.0,29.45,West,269,4.0,7.0,76,0.00,,,0.01,,2013-02-18 21:53:00,
2013-02-18 16:02:00,38.0,31.0,29.45,West,274,3.0,7.0,77,0.00,,,0.01,,2013-02-18 22:02:00,
2013-02-18 16:12:00,37.0,31.0,29.45,West,261,3.0,8.0,78,0.00,,,0.01,,2013-02-18 22:12:00,
2013-02-18 16:22:00,37.0,31.0,29.45,West,261,3.0,8.0,78,0.00,,,0.01,,2013-02-18 22:22:00,
2013-02-18 16:33:00,36.0,32.0,29.45,WNW,298,5.0,10.0,84,0.00,,,0.01,,2013-02-18 22:33:00,
2013-02-18 16:43:00,36.0,32.0,29.45,WNW,298,5.0,10.0,84,0.00,,,0.01,,2013-02-18 22:43:00,
2013-02-18 16:53:00,34.0,31.0,29.45,West,262,5.0,9.0,90,0.00,,,0.01,,2013-02-18 22:53:00,
2013-02-18 17:02:00,34.0,32.0,29.44,West,276,4.0,6.0,92,0.00,,,0.01,,2013-02-18 23:02:00,
2013-02-18 17:12:00,34.0,32.0,29.44,West,276,4.0,6.0,92,0.00,,,0.01,,2013-02-18 23:12:00,
2013-02-18 17:22:00,34.0,32.0,29.44,WNW,285,4.0,6.0,93,0.00,,,0.01,,2013-02-18 23:22:00,
2013-02-18 17:33:00,34.0,32.0,29.45,WNW,293,2.0,5.0,94,0.00,,,0.01,,2013-02-18 23:33:00,
2013-02-18 17:42:00,34.0,32.0,29.45,WNW,293,2.0,5.0,94,0.00,,,0.01,,2013-02-18 23:42:00,
2013-02-18 17:53:00,34.0,32.0,29.44,WNW,286,3.0,4.0,94,0.00,,,0.01,,2013-02-18 23:53:00,
2013-02-18 18:02:00,34.0,32.0,29.44,WNW,295,2.0,5.0,94,0.00,,,0.01,,2013-02-19 00:02:00,
2013-02-18 18:12:00,34.0,32.0,29.44,WNW,295,2.0,5.0,94,0.00,,,0.01,,2013-02-19 00:12:00,
2013-02-18 18:22:00,34.0,32.0,29.44,WNW,283,3.0,7.0,94,0.00,,,0.01,,2013-02-19 00:22:00,
2013-02-18 18:33:00,34.0,32.0,29.45,WNW,290,4.0,9.0,94,0.00,,,0.01,,2013-02-19 00:33:00,
2013-02-18 18:43:00,34.0,32.0,29.45,WNW,290,4.0,9.0,94,0.00,,,0.01,,2013-02-19 00:43:00,
2013-02-18 18:54:00,34.0,32.0,29.46,West,273,4.0,8.0,94,0.00,,,0.01,,2013-02-19 00:54:00,
2013-02-18 19:03:00,33.0,31.0,29.46,West,274,6.0,13.0,93,0.00,,,0.01,,2013-02-19 01:03:00,
2013-02-18 19:13:00,33.0,31.0,29.46,West,274,6.0,13.0,93,0.00,,,0.01,,2013-02-19 01:13:00,
2013-02-18 19:23:00,32.0,30.0,29.46,WNW,295,9.0,16.0,91,0.00,,,0.01,,2013-02-19 01:23:00,
2013-02-18 19:34:00,32.0,30.0,29.46,NW,307,8.0,14.0,92,0.00,,,0.01,,2013-02-19 01:34:00,
2013-02-18 19:43:00,32.0,30.0,29.46,NW,307,8.0,14.0,92,0.00,,,0.01,,2013-02-19 01:43:00,
2013-02-18 19:56:00,32.0,30.0,29.45,WNW,294,8.0,16.0,92,0.00,,,0.01,,2013-02-19 01:56:00,
2013-02-18 20:02:00,31.0,29.0,29.45,West,275,12.0,16.0,91,0.00,,,0.01,,2013-02-19 02:02:00,
2013-02-18 20:23:00,31.0,29.0,29.44,WNW,294,11.0,19.0,91,0.01,,,0.02,,2013-02-19 02:23:00,
2013-02-18 20:34:00,31.0,29.0,29.43,NW,307,8.0,19.0,91,0.01,,,0.02,,2013-02-19 02:34:00,
2013-02-18 20:42:00,31.0,29.0,29.43,NW,307,8.0,19.0,91,0.01,,,0.02,,2013-02-19 02:42:00,
2013-02-18 20:55:00,30.0,28.0,29.44,WNW,302,8.0,16.0,91,0.01,,,0.02,,2013-02-19 02:55:00,
2013-02-18 21:06:00,30.0,28.0,29.44,WNW,303,11.0,19.0,92,0.01,,,0.02,,2013-02-19 03:06:00,
2013-02-18 21:13:00,30.0,28.0,29.44,WNW,303,11.0,19.0,92,0.01,,,0.02,,2013-02-19 03:13:00,
2013-02-18 21:23:00,28.0,26.0,29.44,West,277,10.0,20.0,93,0.00,,,0.02,,2013-02-19 03:23:00,
2013-02-18 21:33:00,28.0,26.0,29.44,WNW,288,10.0,19.0,92,0.00,,,0.02,,2013-02-19 03:33:00,
2013-02-18 21:44:00,28.0,26.0,29.44,WNW,288,10.0,19.0,92,0.00,,,0.02,,2013-02-19 03:44:00,
2013-02-18 21:55:00,27.0,25.0,29.45,WNW,297,11.0,19.0,92,0.00,,,0.02,,2013-02-19 03:55:00,
2013-02-18 22:02:00,26.0,24.0,29.44,West,272,11.0,20.0,92,0.00,,,0.02,,2013-02-19 04:02:00,
2013-02-18 22:13:00,26.0,24.0,29.44,West,272,11.0,20.0,92,0.00,,,0.02,,2013-02-19 04:13:00,
2013-02-18 22:23:00,26.0,24.0,29.44,NNW,335,9.0,18.0,93,0.00,,,0.02,,2013-02-19 04:23:00,
2013-02-18 22:33:00,24.0,22.0,29.44,West,262,6.0,16.0,93,0.00,,,0.02,,2013-02-19 04:33:00,
2013-02-18 22:43:00,24.0,22.0,29.44,West,262,6.0,16.0,93,0.00,,,0.02,,2013-02-19 04:43:00,
2013-02-18 22:55:00,23.0,21.0,29.45,WNW,298,12.0,28.0,93,0.00,,,0.02,,2013-02-19 04:55:00,
2013-02-18 23:02:00,23.0,21.0,29.45,NW,309,11.0,21.0,93,0.00,,,0.02,,2013-02-19 05:02:00,
2013-02-18 23:12:00,23.0,21.0,29.45,NW,309,11.0,21.0,93,0.00,,,0.02,,2013-02-19 05:12:00,
2013-02-18 23:22:00,23.0,21.0,29.45,West,261,12.0,20.0,93,0.00,,,0.02,,2013-02-19 05:22:00,
2013-02-18 23:32:00,22.0,20.0,29.46,West,271,9.0,23.0,93,0.00,,,0.02,,2013-02-19 05:32:00,
2013-02-18 23:43:00,22.0,20.0,29.46,West,271,9.0,23.0,93,0.00,,,0.02,,2013-02-19 05:43:00,
2013-02-18 23:52:00,22.0,20.0,29.46,WNW,300,10.0,19.0,93,0.00,,,0.02,,2013-02-19 05:52:00,